Tracking 30074 objects as of 14-Jan-2025
HD Live streaming from Space Station
objects crossing your sky now

STARLINK-30101

Track STARLINK-30101 now!
10-day predictions
STARLINK-30101 is classified as:


NORAD ID: 56301
Int'l Code: 2023-056R
Perigee: 565.4 km
Apogee: 567.0 km
Inclination: 43.0 °
Period: 95.8 minutes
Semi major axis: 6937 km
RCS: Unknown
Launch date: April 19, 2023
Source: United States (US)
Launch site: AIR FORCE EASTERN TEST RANGE (AFETR)
Your satellite tracking list
Your tracking list is empty




NASA's NSSDC Master Catalog

Two Line Element Set (TLE):
1 56301U 23056R   25013.88027444  .00002682  00000-0  21352-3 0  9993
2 56301  43.0048 331.4000 0001102 282.7975  77.2744 15.02541034 96934
Source of the keplerian elements: AFSPC